Showing default

KAZSTSAT, 43783

Orbit data source: Space-Track

KAZSTSAT, 43783 is a payload satellite in SSO that was launched on Mon, 03 Dec 2018 UTC via an FALCON 9 launch vehicle from the Air Force Western Test Range (AFWTR). Payload-class satellites include a variety of spacecraft equipped with specific instruments for various scientific and technological missions. These include communications satellites like Starlink; space stations such as the ISS; scientific satellites like the Hubble; Earth observation satellites from companies like Planet Labs, Umbra, and HawkEye 360; GPS; miniature CubeSats for education and research; and military/defense satellites.

Loading next visibility...
Identifier
43783, 2018-099AB
Orbit
SSO
Last TLE update
8 hours ago
Origin
Manufacturer
SSTL (Astrium)
Mission
Operational Commercial Science
Bus & Motor
SSTL-X50, AOCS
Mass
110 kg wet, ~100 kg dry
Launch date (UTC)
2018-12-03 (6 years ago)
Launch vehicle
FALCON 9
Launch site
Air Force Western Test Range (AFWTR)
Object type
Payload
Rocket body
Debris
Shape & HBR
Box, 0.5 m
Radar Cross Section
0.375 m², Medium (>0.1 m² and < 1m²)

Expand to show TLE details & history

TLE from 8 hours ago
0 KAZSTSAT
1 43783U 18099AB  25139.12587238  .00001770  00000-0  15208-3 0  9992
2 43783  97.4757 183.0105 0005274 290.9185  69.1473 14.98647735352268
Epoch: 2025-05-19T03:01Z
TLE epoch observation values (Epoch: 2025-05-19T03:01:15.373Z)
Latitude
-0.00009°
Longitude
-99.34651°
Altitude
572.83 km
Speed
7.575 km/s
True Right ascension
12h 12m 02s
True Declination
0° 00' 00"
Sunlit
Object was in full shadow at epoch
Visualization orbit readout
Latitude
-26.71836°
Longitude
-95.26481°
Altitude
578.479 km
Speed
7.572 km/s
Apparent Right ascension
10h 25m 29s
Apparent Declination
-38° 21' 22"
Sunlit
Object is in full shadow
Visualization observer readout
Local Sidereal Time
19:43:49
Azimuth
259.649° W
Elevation
-58.88°
Doppler factor
1
Orbital elements
Apogee altitude
571.734 km
Perigee altitude
564.407 km
Semi-major axis
6,946.208 km
Eccentricity
0.00053
Inclination
97.4757°
RAAN
183.0105°
Arg. of periapsis
290.9185°
True anomaly
Unknown
Mean anomaly
69.1473°
Eccentric anomaly
Unknown
Mean motion
3.74905 °/min
Orbital period
96.02 mins
BSTAR
0.00015208
Loading maneuver chart data...
Loading SW <> Apogee altitude chart data...
Loading historical data...
Loading historical data...
Loading historical data...
Loading historical data...
Loading historical data...
Loading historical data...
Loading historical data...

KAZSTSAT Visibility forecast

Observer location: undefined°, undefined°

Span
Click to sort rows by Start time (UTC) header in descending order
Start Az.
Max El. time (UTC)
Max El. Az.
Max El.
End time (UTC)
End Az.
5 mins2025-05-19 14:49:49.687Z56.383° ENE2025-05-19 14:51:49.687Z90.281° ESE17.741°2025-05-19 14:54:49.687Z138.608° SSE
5 mins2025-05-19 16:24:49.687Z340.52° N2025-05-19 16:26:49.687Z300.03° NW27.131°2025-05-19 16:29:49.687Z234.1° WSW
6 mins2025-05-20 03:11:49.687Z188.044° SSW2025-05-20 03:13:49.687Z243.824° WSW40.175°2025-05-20 03:17:49.687Z339.377° N
|